Location: *
(58.4167°N, 22.5000°E)
Time: 23:39:50
(UTC+00:00)

Cosmos 1503 Rocket - Pass Details

Date: 22 September 2019
Orbit: 753 x 790 km, 74.0° (Epoch: 15 October)

Event Time Altitude Azimuth Distance (km) Brightness Sun altitude
Rises 19:57:00 0° 329° (NNW) 3,258 8.6 -24.7°
Reaches altitude 10° 19:59:24 10° 330° (NNW) 2,322 7.5 -25.0°
Maximum altitude 20:04:41 80° 58° (ENE) 782 3.9 -25.4°
Enters shadow 20:04:57 77° 99° (E) 790 3.8 -25.4°
